K5SOI Weather Reports


time (UTC)temp
F
wind
direction
speed
knots
gust
knots
rain 1hr
in
rain 24hr
in
rain mn
in
humidity
%
barometer
mb
20260504100524 58 119 1.7 4.3 0.00 0.00 0.00 93 1015.0
20260504081522 59 118 2.6 4.3 0.00 0.00 0.00 90 1015.7
20260504081023 59 113 1.7 4.3 0.00 0.00 0.00 91 1015.8
20260504080522 59 113 2.6 4.3 0.00 0.00 0.00 92 1015.8
20260504050521 61 141 3.5 5.2 0.00 0.00 0.00 87 1018.0
20260504050021 61 132 4.3 5.2 0.00 0.00 0.00 87 1018.0
20260504045020 61 130 3.5 5.2 0.00 0.00 0.00 87 1018.0
20260504044520 61 128 4.3 5.2 0.00 0.00 0.00 88 1018.2
20260504044021 61 132 4.3 5.2 0.00 0.00 0.00 87 1018.2
20260504043520 60 133 4.3 5.2 0.00 0.00 0.00 88 1018.1
20260504042520 61 146 5.2 6.1 0.00 0.00 0.00 87 1018.3
20260504042020 61 138 5.2 6.1 0.00 0.00 0.00 87 1018.2
20260504041520 61 148 4.3 5.2 0.00 0.00 0.00 87 1018.3
20260504041020 61 138 4.3 5.2 0.00 0.00 0.00 88 1018.4
20260504040520 61 141 2.6 2.6 0.00 0.00 0.00 89 1018.4
20260504040020 61 149 2.6 4.3 0.00 0.00 0.00 88 1018.4
20260504035519 61 135 2.6 5.2 0.00 0.00 0.00 88 1018.3
20260504035020 61 131 4.3 5.2 0.00 0.00 0.00 88 1018.2
20260504034519 61 132 4.3 5.2 0.00 0.00 0.00 87 1018.2
20260504033019 62 139 3.5 4.3 0.00 0.00 0.00 86 1018.2
20260504032019 62 145 4.3 5.2 0.00 0.00 0.00 86 1018.2
20260504031519 62 149 4.3 5.2 0.00 0.00 0.00 85 1018.1
20260504030019 62 139 2.6 2.6 0.00 0.00 0.00 85 1018.1
20260504024519 63 135 2.6 5.2 0.00 0.00 0.00 82 1018.0
20260504024018 63 144 4.3 5.2 0.00 0.00 0.00 82 1018.0
20260504023519 63 126 2.6 4.3 0.00 0.00 0.00 82 1017.8
20260504023019 63 115 4.3 6.1 0.00 0.00 0.00 81 1017.6
20260504022519 63 118 4.3 5.2 0.00 0.00 0.00 82 1017.6
20260504022018 64 128 4.3 5.2 0.00 0.00 0.00 81 1017.7
20260504021518 64 129 2.6 4.3 0.00 0.00 0.00 80 1017.7
20260504021018 64 122 3.5 5.2 0.00 0.00 0.00 79 1017.7
20260504020518 64 119 4.3 5.2 0.00 0.00 0.00 80 1017.6
20260504020019 64 115 2.6 4.3 0.00 0.00 0.00 79 1017.7
20260504015518 64 119 2.6 4.3 0.00 0.00 0.00 79 1017.7
20260504015018 64 114 4.3 5.2 0.00 0.00 0.00 79 1017.6
20260504014517 64 113 4.3 5.2 0.00 0.00 0.00 79 1017.5
20260504014019 64 114 3.5 5.2 0.00 0.00 0.00 79 1017.5
20260504013518 65 114 4.3 4.3 0.00 0.00 0.00 77 1017.5
20260504013018 65 113 4.3 5.2 0.00 0.00 0.00 76 1017.6
20260504012518 66 113 4.3 5.2 0.00 0.00 0.00 74 1017.5
20260504012018 66 111 4.3 5.2 0.00 0.00 0.00 73 1017.5
20260504011518 67 114 4.3 5.2 0.00 0.00 0.00 71 1017.5
20260504010017 69 109 6.1 7.8 0.00 0.00 0.00 67 1017.5
20260504005517 69 111 7.0 8.7 0.00 0.00 0.00 65 1017.5
20260504005017 70 119 6.1 10.4 0.00 0.00 0.00 63 1017.7
20260504004018 71 112 7.0 10.4 0.00 0.00 0.00 61 1017.5
20260504003017 72 114 7.0 10.4 0.00 0.00 0.00 61 1017.7
20260504002017 72 108 8.7 13.0 0.00 0.00 0.00 58 1017.7
20260504001516 73 106 9.6 12.2 0.00 0.00 0.00 55 1017.7
20260504001017 73 112 9.6 13.0 0.00 0.00 0.00 54 1017.7
20260504000017 74 107 10.4 13.0 0.00 0.00 0.00 51 1017.7
20260503233516 76 108 10.4 12.2 0.00 0.00 0.00 49 1017.6
20260503233017 75 98 11.3 13.0 0.00 0.00 0.00 47 1017.6
20260503232517 76 94 10.4 13.0 0.00 0.00 0.00 48 1017.7
20260503231516 76 94 10.4 15.6 0.00 0.00 0.00 48 1017.7
20260503231016 77 113 7.8 12.2 0.00 0.00 0.00 48 1017.8
20260503230516 76 108 10.4 15.6 0.00 0.00 0.00 48 1017.8
20260503230016 78 109 9.6 13.9 0.00 0.00 0.00 50 1017.9
20260503225515 78 105 8.7 12.2 0.00 0.00 0.00 49 1018.0
20260503225017 77 104 10.4 13.0 0.00 0.00 0.00 49 1017.9
20260503224516 77 111 9.6 12.2 0.00 0.00 0.00 49 1018.0
20260503224016 78 132 8.7 12.2 0.00 0.00 0.00 50 1018.0
20260503223516 77 137 8.7 13.0 0.00 0.00 0.00 50 1018.0
20260503222516 78 128 8.7 12.2 0.00 0.00 0.00 49 1018.1
20260503221516 80 127 9.6 12.2 0.00 0.00 0.00 50 1018.2
20260503221015 78 117 8.7 12.2 0.00 0.00 0.00 46 1018.2
20260503220515 78 121 8.7 11.3 0.00 0.00 0.00 46 1018.2
20260503220015 79 128 7.8 11.3 0.00 0.00 0.00 44 1018.3
20260503215515 79 117 7.8 11.3 0.00 0.00 0.00 45 1018.5
20260503215016 79 126 7.8 12.2 0.00 0.00 0.00 44 1018.5
20260503214515 80 123 8.7 10.4 0.00 0.00 0.00 43 1018.6
20260503213515 80 126 7.8 10.4 0.00 0.00 0.00 43 1018.7
20260503213015 79 112 7.8 11.3 0.00 0.00 0.00 43 1018.8
20260503212516 79 124 8.7 11.3 0.00 0.00 0.00 44 1019.0
20260503212015 79 151 8.7 11.3 0.00 0.00 0.00 44 1019.0
20260503211015 78 95 7.8 15.6 0.00 0.00 0.00 44 1019.1
20260503210515 79 99 7.8 11.3 0.00 0.00 0.00 46 1019.2
20260503210014 80 119 7.8 12.2 0.00 0.00 0.00 46 1019.3
20260503205514 78 137 7.0 13.9 0.00 0.00 0.00 46 1019.3
20260503205015 80 136 7.8 12.2 0.00 0.00 0.00 46 1019.3
20260503204515 79 151 7.0 13.9 0.00 0.00 0.00 46 1019.6
20260503203015 79 139 8.7 13.0 0.00 0.00 0.00 46 1019.8
20260503202514 78 154 6.1 13.0 0.00 0.00 0.00 45 1019.8
20260503202014 80 135 6.1 13.0 0.00 0.00 0.00 46 1019.9
20260503201014 81 112 7.8 15.6 0.00 0.00 0.00 44 1020.0
20260503195514 80 127 7.8 12.2 0.00 0.00 0.00 44 1020.1
20260503194513 80 110 10.4 13.9 0.00 0.00 0.00 41 1020.2
20260503192513 80 148 7.8 15.6 0.00 0.00 0.00 45 1020.5
20260503192013 80 145 5.2 8.7 0.00 0.00 0.00 46 1020.5
20260503191014 79 96 5.2 10.4 0.00 0.00 0.00 43 1020.5
20260503190513 79 150 4.3 11.3 0.00 0.00 0.00 41 1020.6
20260503173013 79 45 5.2 8.7 0.00 0.00 0.00 45 1022.2
20260503172512 78 73 7.0 10.4 0.00 0.00 0.00 45 1022.3
20260503151010 75 87 4.3 7.0 0.00 0.00 0.00 58 1022.8
20260503150511 73 76 4.3 6.1 0.00 0.00 0.00 62 1022.8
20260503110507 53 311 0.0 0.9 0.00 0.00 0.00 97 1020.9